[[{"header":{"parameterUnit":"m.s-1","parameterCategory":1,"la1":30.2991,"la2":30.254,"lo1":-89.0895,"lo2":-89.0444,"dy":0.0017,"dx":0.0017,"nx":28,"ny":28,"refTime":"2023-07-27T21:00:00:Z","depth":0,"parameterNumber":2,"parameterNumberName":"U-component_of_WINDS"},"data":[0,0,0,0,0,0,0,0,0,0,0,0,0,0,0,0,0,0,0,0,0,0,0,0,0,0,0,0,0,0,0,0,0,0,0,0,0,0,0,0,0,0,0,0,0,0,0,0,0,0,0,0,0,0,0,0,0,0,2.9171,2.9172,0,2.9249,2.925,2.9251,2.9211,2.9209,2.9207,2.9205,2.9282,2.9286,2.929,0,0,0,0,0,0,0,0,0,0,0,0,0,2.8983,2.8987,2.9171,2.9172,2.9173,2.9249,2.925,2.9251,2.9211,2.9209,2.9206,2.9204,2.9281,2.9285,2.929,0,0,0,0,0,0,0,0,0,0,0,0,0,2.9063,2.8988,2.9171,2.9162,2.9162,2.9249,2.925,2.9251,2.9212,2.9208,2.9205,2.9202,2.9279,2.9285,2.9291,2.9389,0,0,2.9309,2.9311,0,0,0,0,0,0,0,0,2.9059,2.907,2.9162,2.9163,2.9163,2.9217,2.9212,2.9298,2.9212,2.9193,2.9205,2.9201,2.9263,2.927,2.9291,2.9393,2.9396,2.9309,2.9313,2.9316,2.9317,0,0,0,0,0,0,0,2.9053,2.9067,2.9202,2.9164,2.9164,2.9153,2.9161,2.9228,2.9244,2.9194,2.9191,2.9201,2.9262,2.9285,2.9293,2.9397,2.9309,2.9315,2.9318,2.9321,2.9582,2.9585,0,0,0,0,0,0,2.9049,2.9062,2.9199,2.9204,2.9102,2.9159,2.9168,2.9203,2.9243,2.9246,2.9204,2.9199,2.9277,2.9286,2.9295,2.9412,2.9316,2.9321,2.9325,2.9579,2.9583,2.9587,0,0,0,0,0,0,2.9045,2.9061,2.9196,2.9132,2.9149,2.9166,2.9205,2.9206,2.9229,2.9251,2.9253,2.9225,2.9275,2.9287,2.9366,2.9414,2.9324,2.9329,2.9575,2.958,2.9585,2.9646,0,0,0,0,0,0,2.904,2.906,2.9099,2.9134,2.9152,2.9267,2.9208,2.921,2.924,2.9234,2.9271,2.9274,2.9273,2.9357,2.9372,2.942,2.9334,2.9571,2.9577,2.9583,2.964,2.9653,2.9664,0,0,0,0,0,2.9033,2.9113,2.9101,2.9117,2.9201,2.927,2.928,2.9278,2.9244,2.9282,2.9296,2.9273,2.9407,2.9366,2.9382,2.9433,2.9568,2.9575,2.9583,2.9635,2.965,2.9664,0,0,0,0,0,0,2.9082,2.9117,2.9104,2.9198,2.9231,2.9263,2.9311,2.9295,2.9338,2.9331,2.9326,2.9335,2.9417,2.9433,2.9387,2.953,2.9482,2.9493,2.9516,2.9531,2.9542,2.9536,2.9339,0,0,0,0,0,2.9104,2.9157,2.9185,2.9265,2.9282,2.9294,2.9324,2.932,2.9353,2.9367,2.9386,2.9419,2.9468,2.9501,2.9547,2.9643,2.9649,2.9686,2.9698,2.9707,2.9716,2.9766,2.9782,2.9612,2.9611,2.9611,0,0,2.9149,2.9175,2.9209,2.9275,2.93,2.9355,2.9306,2.9366,2.9405,2.9376,2.9451,2.9467,2.9503,2.9591,2.963,2.9606,2.9765,2.9717,2.9725,2.9728,2.9775,2.9792,2.9806,2.9617,2.9616,2.9615,0,0,2.9258,2.9285,2.9353,2.9379,2.9419,2.9426,2.9442,2.9476,2.9486,2.9562,2.954,2.9587,2.9673,2.9699,2.9723,2.9843,2.9823,2.9858,2.9919,2.9968,2.9981,2.9993,3.0033,3.0048,2.9868,2.9868,2.9868,0,2.9309,2.9391,2.939,2.9451,2.948,2.9457,2.9525,2.9551,2.9603,2.9623,2.9596,2.9702,2.9725,2.9817,2.9846,2.9868,2.9885,2.9853,2.998,2.9992,3.0003,3.0041,3.0056,2.9872,2.9871,2.9871,2.9871,0,2.9451,2.9508,2.9558,2.961,2.9645,2.9709,2.9716,2.9752,2.9745,2.9754,2.9831,2.9858,2.9909,2.9931,2.9925,3.0022,3.0006,2.998,2.9931,3.0023,3.0058,3.0073,2.9877,2.9876,2.9875,2.9874,0,0,2.9592,2.9642,2.966,2.9682,2.9724,2.9768,2.9831,2.9881,2.9911,2.9948,2.9999,3.0072,3.0048,3.0076,3.0072,3.0115,3.0205,3.0083,3.0084,3.0103,3.0312,3.0329,3.0346,3.0193,3.0196,3.0198,3.0308,0,2.9702,2.9814,2.9814,2.9916,2.9967,2.9946,3.0001,3.0031,3.0042,3.0087,3.0098,3.0149,3.0114,3.0131,3.0173,3.0186,3.0247,3.0178,3.0239,3.0241,3.0228,3.0366,3.0385,3.0486,3.0322,3.0324,3.0326,0,2.9846,2.9888,2.9995,3.0028,3.005,3.0099,3.0145,3.0188,3.0222,3.0227,3.0258,3.0248,3.031,3.0262,3.0347,3.03,3.0325,3.0335,3.0339,3.0342,3.0287,3.037,3.0519,3.0533,3.0349,3.0347,3.0345,0,2.9936,3.0019,3.0093,3.0113,3.0154,3.0189,3.0208,3.0239,3.0268,3.0308,3.0327,3.0374,3.0399,3.0435,3.0436,3.0401,3.0521,3.0473,3.0525,3.0525,3.0549,3.0547,3.0702,3.057,3.057,3.0569,3.0569,0,3.0058,3.0123,3.0134,3.0179,3.0252,3.0251,3.0323,3.0338,3.0366,3.0413,3.0398,3.0442,3.0443,3.0488,3.049,3.0558,3.0571,3.0574,3.0574,3.0575,3.0574,3.0589,3.0581,3.0574,3.0573,3.0572,3.0571,0,3.0169,3.0179,3.0258,3.029,3.03,3.0352,3.0379,3.0421,3.0431,3.049,3.0504,3.0519,3.0571,3.0577,3.0638,3.0639,3.0721,3.0714,3.0709,3.0707,3.0758,3.0752,3.0925,3.0947,3.0804,3.0805,3.0806,0,3.0245,3.0295,3.0333,3.0364,3.0384,3.0434,3.0464,3.0466,3.0498,3.054,3.0577,3.0628,3.0668,3.0752,3.0767,3.0813,3.0805,3.0863,3.0812,3.081,3.0803,3.0799,3.0803,3.0872,3.0873,3.0874,3.0876,0,3.0378,3.0381,3.0426,3.0473,3.051,3.0546,3.0581,3.0607,3.0612,3.0649,3.0702,3.0734,3.0795,3.0845,3.089,3.0907,3.0892,3.0892,3.0906,3.0906,3.09,3.0901,3.0734,3.0887,3.0886,3.0885,3.0885,3.0884,3.0472,3.0515,3.0548,3.0599,3.0625,3.0657,3.0699,3.0713,3.0758,3.0809,3.0807,3.0865,3.0896,3.0955,3.0976,3.102,3.1001,3.1022,3.1027,3.1031,3.1035,3.0895,3.1029,3.1029,3.1028,3.1028,3.1028,0,3.0603,3.0623,3.067,3.0718,3.0758,3.0742,3.0779,3.0812,3.0863,3.0895,3.0935,3.0995,3.1043,3.1062,3.1108,3.114,3.1134,3.1152,3.1148,3.1152,3.1051,3.1033,3.1156,3.1156,3.1156,3.1156,3.1156,3.1156,3.0675,3.0746,3.0752,3.0835,3.0855,3.0912,3.0934,3.0964,3.0988,3.1056,3.1096,3.1109,3.1135,3.1183,3.1225,3.123,3.1246,3.1267,3.1268,3.1173,3.1159,3.1147,3.113,3.1271,3.1271,3.1365,3.1366,3.1366]},{"header":{"parameterUnit":"m.s-1","parameterCategory":1,"la1":30.2991,"la2":30.254,"lo1":-89.0895,"lo2":-89.0444,"dy":0.0017,"dx":0.0017,"nx":28,"ny":28,"refTime":"2023-07-27T21:00:00:Z","depth":0,"parameterNumber":3,"parameterNumberName":"V-component_of_WINDS"},"data":[0,0,0,0,0,0,0,0,0,0,0,0,0,0,0,0,0,0,0,0,0,0,0,0,0,0,0,0,0,0,0,0,0,0,0,0,0,0,0,0,0,0,0,0,0,0,0,0,0,0,0,0,0,0,0,0,0,0,-0.7207,-0.7206,0,-0.7137,-0.7136,-0.7136,-0.709,-0.709,-0.7089,-0.7089,-0.7013,-0.7012,-0.701,0,0,0,0,0,0,0,0,0,0,0,0,0,-0.7298,-0.7297,-0.7207,-0.7206,-0.7205,-0.7137,-0.7136,-0.7135,-0.709,-0.709,-0.7089,-0.7089,-0.7014,-0.7012,-0.701,0,0,0,0,0,0,0,0,0,0,0,0,0,-0.7246,-0.7296,-0.7207,-0.7175,-0.7171,-0.7138,-0.7136,-0.7135,-0.709,-0.7089,-0.7089,-0.7089,-0.7015,-0.7012,-0.701,-0.7002,0,0,-0.7002,-0.7,0,0,0,0,0,0,0,0,-0.7249,-0.7243,-0.718,-0.7177,-0.7173,-0.7122,-0.7141,-0.709,-0.709,-0.7121,-0.7089,-0.7088,-0.705,-0.7044,-0.7032,-0.6998,-0.6995,-0.7001,-0.7,-0.6999,-0.6998,0,0,0,0,0,0,0,-0.7253,-0.7246,-0.7179,-0.7179,-0.7175,-0.7162,-0.7155,-0.7131,-0.7088,-0.7118,-0.7114,-0.7107,-0.7047,-0.7034,-0.703,-0.6994,-0.7001,-0.6999,-0.6997,-0.6996,-0.6952,-0.6952,0,0,0,0,0,0,-0.7262,-0.7249,-0.7182,-0.7177,-0.7211,-0.7161,-0.7152,-0.7139,-0.7088,-0.708,-0.7107,-0.7105,-0.7039,-0.7033,-0.7027,-0.7015,-0.6999,-0.6996,-0.6995,-0.6952,-0.6952,-0.6952,0,0,0,0,0,0,-0.7264,-0.7257,-0.7184,-0.7212,-0.7202,-0.716,-0.7145,-0.7137,-0.7124,-0.7081,-0.7072,-0.7102,-0.7038,-0.703,-0.7009,-0.7012,-0.6995,-0.6993,-0.6951,-0.6952,-0.6952,-0.6991,0,0,0,0,0,0,-0.7267,-0.7258,-0.7255,-0.7213,-0.7201,-0.7169,-0.7145,-0.7136,-0.712,-0.7117,-0.7073,-0.7066,-0.7038,-0.7013,-0.7006,-0.7008,-0.6991,-0.6951,-0.6951,-0.6952,-0.699,-0.6993,-0.6996,0,0,0,0,0,-0.7271,-0.7268,-0.7255,-0.7247,-0.7197,-0.7169,-0.7162,-0.7131,-0.7121,-0.7117,-0.709,-0.7067,-0.7013,-0.7011,-0.7003,-0.7004,-0.695,-0.6951,-0.6952,-0.6988,-0.6993,-0.6996,0,0,0,0,0,0,-0.7309,-0.7261,-0.7247,-0.723,-0.7204,-0.7161,-0.7156,-0.7136,-0.7111,-0.7109,-0.707,-0.706,-0.7043,-0.7021,-0.702,-0.6995,-0.6979,-0.6978,-0.7009,-0.7013,-0.7016,-0.7021,-0.6988,0,0,0,0,0,-0.7317,-0.7299,-0.7258,-0.7247,-0.7235,-0.7198,-0.7185,-0.7163,-0.7134,-0.7122,-0.7092,-0.7064,-0.704,-0.7026,-0.7001,-0.6987,-0.6977,-0.6983,-0.6987,-0.699,-0.6989,-0.698,-0.6983,-0.6955,-0.6955,-0.6955,0,0,-0.733,-0.7302,-0.7293,-0.7254,-0.7231,-0.7213,-0.7189,-0.717,-0.7156,-0.7119,-0.7097,-0.7075,-0.704,-0.7022,-0.7013,-0.7004,-0.6995,-0.6991,-0.6994,-0.6991,-0.6981,-0.6984,-0.6986,-0.6956,-0.6956,-0.6956,0,0,-0.7346,-0.7323,-0.7312,-0.729,-0.7257,-0.7232,-0.723,-0.719,-0.7174,-0.7153,-0.7124,-0.7107,-0.7067,-0.7044,-0.7027,-0.7036,-0.7015,-0.7029,-0.7046,-0.7038,-0.704,-0.7042,-0.7045,-0.7047,-0.7029,-0.7029,-0.7029,0,-0.7366,-0.7339,-0.7308,-0.7292,-0.7276,-0.7243,-0.7232,-0.7212,-0.7171,-0.7161,-0.7152,-0.7102,-0.7077,-0.7053,-0.7056,-0.7043,-0.7039,-0.7033,-0.7043,-0.7044,-0.7045,-0.7048,-0.7049,-0.7031,-0.7031,-0.7031,-0.7031,0,-0.7366,-0.7348,-0.7343,-0.7307,-0.729,-0.7277,-0.7243,-0.723,-0.721,-0.7187,-0.7165,-0.7134,-0.7103,-0.7096,-0.7076,-0.707,-0.7066,-0.705,-0.7034,-0.705,-0.7052,-0.7053,-0.7034,-0.7033,-0.7033,-0.7032,0,0,-0.7402,-0.7352,-0.735,-0.7334,-0.7296,-0.728,-0.7265,-0.7237,-0.7227,-0.72,-0.7186,-0.7155,-0.7141,-0.7122,-0.7099,-0.7092,-0.7101,-0.7077,-0.7076,-0.7082,-0.7093,-0.7105,-0.7106,-0.7088,-0.7088,-0.7088,-0.7096,0,-0.7412,-0.7384,-0.7357,-0.7339,-0.7321,-0.7291,-0.7278,-0.7253,-0.7231,-0.7212,-0.7187,-0.7166,-0.7149,-0.7137,-0.7129,-0.7102,-0.7103,-0.7101,-0.7073,-0.7072,-0.7082,-0.7107,-0.7119,-0.7128,-0.7096,-0.7096,-0.7096,0,-0.7419,-0.7396,-0.7377,-0.7342,-0.7333,-0.7322,-0.7295,-0.7278,-0.7248,-0.7233,-0.7213,-0.719,-0.7172,-0.7158,-0.7133,-0.7132,-0.7119,-0.7104,-0.7104,-0.7099,-0.7085,-0.7103,-0.713,-0.7131,-0.7097,-0.7097,-0.7097,0,-0.7447,-0.7412,-0.7396,-0.7383,-0.7341,-0.7334,-0.7316,-0.7287,-0.7272,-0.7248,-0.7238,-0.7212,-0.7197,-0.7177,-0.7146,-0.7139,-0.7124,-0.7108,-0.711,-0.7111,-0.7107,-0.7108,-0.7132,-0.71,-0.71,-0.71,-0.71,0,-0.746,-0.7449,-0.7408,-0.7398,-0.7386,-0.7354,-0.7342,-0.7321,-0.7296,-0.7281,-0.7253,-0.7239,-0.72,-0.7182,-0.7158,-0.7141,-0.7134,-0.7121,-0.7114,-0.7123,-0.7125,-0.7113,-0.7112,-0.71,-0.71,-0.71,-0.71,0,-0.7489,-0.7461,-0.7442,-0.7405,-0.7395,-0.7388,-0.7355,-0.7344,-0.7322,-0.7304,-0.7297,-0.7261,-0.7238,-0.7207,-0.7174,-0.7158,-0.7143,-0.7134,-0.7154,-0.715,-0.7154,-0.7154,-0.7171,-0.7172,-0.714,-0.7141,-0.7141,0,-0.7499,-0.749,-0.7453,-0.7442,-0.7426,-0.7408,-0.7393,-0.7362,-0.7348,-0.7315,-0.7308,-0.7284,-0.7262,-0.7227,-0.7197,-0.7172,-0.7161,-0.7169,-0.7156,-0.7166,-0.716,-0.7161,-0.716,-0.7171,-0.7172,-0.7172,-0.7173,0,-0.7519,-0.7506,-0.7487,-0.7464,-0.7448,-0.7427,-0.7405,-0.7397,-0.7362,-0.7347,-0.7324,-0.7308,-0.7275,-0.7251,-0.7222,-0.7202,-0.7181,-0.7177,-0.7176,-0.7184,-0.7196,-0.719,-0.7161,-0.7176,-0.7176,-0.7176,-0.7176,-0.7175,-0.7538,-0.753,-0.7503,-0.7483,-0.7464,-0.7444,-0.7433,-0.741,-0.7391,-0.7363,-0.7345,-0.7323,-0.7295,-0.7254,-0.7236,-0.7218,-0.7209,-0.7208,-0.7208,-0.7208,-0.7211,-0.72,-0.7212,-0.7212,-0.7212,-0.7212,-0.7212,0,-0.7557,-0.7539,-0.7521,-0.7492,-0.7477,-0.7461,-0.7436,-0.7423,-0.7405,-0.7381,-0.7362,-0.7336,-0.7312,-0.7282,-0.7256,-0.7248,-0.7237,-0.7242,-0.7242,-0.7238,-0.722,-0.7223,-0.7251,-0.7251,-0.7251,-0.7251,-0.7251,-0.7251,-0.7565,-0.755,-0.7534,-0.7509,-0.749,-0.747,-0.7458,-0.7439,-0.7421,-0.7394,-0.7375,-0.7356,-0.7329,-0.7302,-0.728,-0.7271,-0.7263,-0.727,-0.7259,-0.7242,-0.7239,-0.7236,-0.7238,-0.7269,-0.7269,-0.7278,-0.7278,-0.7279]}]]